Location: Unspecified
(35.6961°N, 0.0000°E)
Time: 02:01:54
(UTC+00:00)

deb Explorer IX - Visible Passes

Search period start: 23 October 2019 00:00
Search period end: 02 November 2019 00:00
Orbit: 545 x 1106 km, 38.8° (Epoch: 22 October)

Date Brightness Start Highest point End Pass type
(mag) Time Alt. Az. Time Alt. Az. Time Alt. Az.
23 Oct ? 19:13:39 10° WSW 19:16:31 13° SW 19:19:27 10° SSW visible
24 Oct ? 18:52:02 10° WSW 18:54:30 12° SW 18:57:03 10° SSW visible
25 Oct ? 18:30:30 10° WSW 18:32:31 11° SW 18:34:34 10° SSW visible
26 Oct ? 18:09:12 10° SW 18:10:31 11° SW 18:11:52 10° SSW visible
